FW6907 Weather Reports


time (UTC)temp
F
wind
direction
speed
knots
gust
knots
rain 1hr
in
rain 24hr
in
rain mn
in
humidity
%
barometer
mb
20260507054334 48 330 0.0 0.0 0.00 0.00 0.00 72 1016.8
20260507053832 48 330 0.0 0.0 0.00 0.00 0.00 71 1016.7
20260507053329 48 330 0.0 0.0 0.00 0.00 0.00 71 1016.8
20260507052828 48 330 0.0 0.0 0.00 0.00 0.00 73 1016.8
20260507052324 48 330 0.0 0.0 0.00 0.00 0.00 73 1016.8
20260507051822 48 330 0.0 0.0 0.00 0.00 0.00 72 1016.8
20260507051320 48 330 0.0 0.0 0.00 0.00 0.00 73 1016.9
20260507050816 48 330 0.0 0.0 0.00 0.00 0.00 74 1016.8
20260507050312 48 330 0.0 0.0 0.00 0.00 0.00 76 1016.6
20260507045810 48 330 0.0 0.0 0.00 0.00 0.00 75 1016.7
20260507045307 48 330 0.0 0.0 0.00 0.00 0.00 74 1016.3
20260507044803 49 330 0.0 0.0 0.00 0.00 0.00 76 1016.5
20260507044300 49 330 0.0 0.0 0.00 0.00 0.00 75 1016.4
20260507043756 49 330 0.0 0.0 0.00 0.00 0.00 72 1016.4
20260507043252 49 330 0.0 0.0 0.00 0.00 0.00 75 1016.5
20260507042749 49 330 0.0 0.0 0.00 0.00 0.00 72 1016.4
20260507042244 49 330 0.0 0.0 0.00 0.00 0.00 70 1016.3
20260507041742 49 330 0.0 0.0 0.00 0.00 0.00 69 1016.3
20260507041238 49 330 0.0 0.0 0.00 0.00 0.00 68 1016.3
20260507040735 49 330 0.0 0.0 0.00 0.00 0.00 68 1016.3
20260507040231 50 330 0.0 0.0 0.00 0.00 0.00 68 1016.3
20260507035727 50 330 0.0 0.0 0.00 0.00 0.00 67 1016.3
20260507035223 50 330 0.0 0.0 0.00 0.00 0.00 68 1016.5
20260507034721 50 330 0.0 0.0 0.00 0.00 0.00 68 1016.4
20260507034217 50 330 0.0 0.0 0.00 0.00 0.00 68 1016.4
20260507033716 50 330 0.0 0.0 0.00 0.00 0.00 68 1016.4
20260507033213 50 330 0.0 0.0 0.00 0.00 0.00 68 1016.4
20260507032710 50 330 0.0 0.0 0.00 0.00 0.00 69 1016.4
20260507032206 50 330 0.0 0.0 0.00 0.00 0.00 68 1016.3
20260507031703 51 330 0.0 0.0 0.00 0.00 0.00 68 1016.2
20260507031200 51 330 0.0 0.0 0.00 0.00 0.00 67 1016.0
20260507030656 51 330 0.0 0.0 0.00 0.00 0.00 69 1015.9
20260507030154 51 330 0.0 0.9 0.00 0.00 0.00 68 1015.9
20260507025651 51 330 0.0 0.0 0.00 0.00 0.00 70 1016.1
20260507025148 51 330 0.0 0.0 0.00 0.00 0.00 68 1015.9
20260507024646 51 330 0.0 0.0 0.00 0.00 0.00 66 1016.0
20260507024143 52 330 0.0 0.0 0.00 0.00 0.00 66 1015.8
20260507023638 52 330 0.0 0.0 0.00 0.00 0.00 66 1015.6
20260507023136 52 330 0.0 0.0 0.00 0.00 0.00 66 1015.7
20260507022633 52 330 0.0 0.0 0.00 0.00 0.00 64 1015.7
20260507022128 52 330 0.0 0.9 0.00 0.00 0.00 64 1015.7
20260507021625 52 330 0.0 0.0 0.00 0.00 0.00 65 1015.6
20260507021120 53 331 0.0 0.0 0.00 0.00 0.00 65 1015.7
20260507020619 53 330 0.0 0.0 0.00 0.00 0.00 64 1015.6
20260507020115 53 330 0.0 0.0 0.00 0.00 0.00 64 1015.7
20260507015614 53 330 0.0 0.0 0.00 0.00 0.00 64 1015.7
20260507015111 53 331 0.0 0.0 0.00 0.00 0.00 65 1015.3
20260507014607 53 331 0.0 0.9 0.00 0.00 0.00 64 1015.6
20260507014103 53 331 0.0 0.9 0.00 0.00 0.00 64 1015.4
20260507013600 54 331 0.0 0.0 0.00 0.00 0.00 64 1015.1
20260507013057 54 331 0.0 0.0 0.00 0.00 0.00 63 1015.0
20260507012554 54 331 0.0 0.0 0.00 0.00 0.00 63 1015.2
20260507012049 54 331 0.0 0.0 0.00 0.00 0.00 64 1015.2
20260507011547 54 331 0.0 0.0 0.00 0.00 0.00 63 1015.2
20260507011038 55 331 0.0 0.0 0.00 0.00 0.00 63 1015.1
20260507010532 55 331 0.0 0.0 0.00 0.00 0.00 62 1015.2
20260507010029 56 331 0.0 0.0 0.00 0.00 0.00 62 1015.1
20260507005527 56 331 0.0 0.0 0.00 0.00 0.00 60 1015.0
20260507005023 56 331 0.0 0.0 0.00 0.00 0.00 60 1014.8
20260507004520 56 331 0.0 0.0 0.00 0.00 0.00 61 1014.9
20260507004017 56 331 0.0 0.0 0.00 0.00 0.00 60 1015.0
20260507003512 56 331 0.0 0.0 0.00 0.00 0.00 59 1014.8
20260507003008 57 331 0.0 0.9 0.00 0.00 0.00 58 1014.9
20260507002504 57 331 0.0 0.0 0.00 0.00 0.00 59 1014.7
20260507002001 57 331 0.0 0.0 0.00 0.00 0.00 58 1014.8
20260507001457 57 331 0.0 0.0 0.00 0.00 0.00 58 1014.6
20260507000955 57 331 0.9 1.7 0.00 0.00 0.00 59 1014.7
20260507000450 57 331 0.0 0.9 0.00 0.00 0.00 58 1014.9
20260506235946 58 331 0.9 1.7 0.00 0.00 0.00 58 1014.7
20260506235444 58 331 0.0 0.0 0.00 0.00 0.00 57 1014.8
20260506234940 58 314 0.9 1.7 0.00 0.00 0.00 57 1014.7
20260506234437 59 255 0.9 0.9 0.00 0.00 0.00 59 1014.8
20260506233935 59 284 0.0 0.0 0.00 0.00 0.00 57 1014.4
20260506233431 59 325 0.0 0.0 0.00 0.00 0.00 57 1014.4
20260506232928 59 333 0.9 0.9 0.00 0.00 0.00 55 1014.4
20260506232424 59 332 0.9 0.9 0.00 0.00 0.00 56 1014.4
20260506231920 59 16 0.9 0.9 0.00 0.00 0.00 54 1014.2
20260506231418 60 324 0.0 0.0 0.00 0.00 0.00 55 1014.2
20260506230914 59 313 0.0 0.9 0.00 0.00 0.00 55 1013.9
20260506230411 60 351 1.7 1.7 0.00 0.00 0.00 53 1013.9
20260506225907 60 314 1.7 1.7 0.00 0.00 0.00 60 1013.8
20260506225405 59 23 1.7 1.7 0.00 0.00 0.00 57 1013.6
20260506224901 59 339 2.6 2.6 0.00 0.00 0.00 58 1013.5
20260506224359 60 330 0.0 0.0 0.00 0.00 0.00 60 1013.6
20260506223855 59 339 0.0 0.0 0.00 0.00 0.00 59 1013.3
20260506223350 60 323 0.9 0.9 0.00 0.00 0.00 60 1013.4
20260506222848 59 339 0.0 0.0 0.00 0.00 0.00 60 1013.5
20260506222344 59 339 0.0 0.0 0.00 0.00 0.00 62 1013.2
20260506221842 58 339 0.0 0.0 0.00 0.00 0.00 63 1013.5
20260506221339 58 339 0.9 1.7 0.00 0.00 0.00 61 1013.5
20260506220836 58 339 0.0 0.9 0.00 0.00 0.00 62 1013.8
20260506220332 58 339 0.0 0.0 0.00 0.00 0.00 62 1013.8
20260506215829 58 339 0.0 0.0 0.00 0.00 0.00 61 1013.9
20260506215324 58 339 0.0 0.0 0.00 0.00 0.00 63 1013.8
20260506214820 58 339 0.0 0.0 0.00 0.00 0.00 63 1013.8
20260506214317 57 346 0.0 0.9 0.00 0.00 0.00 63 1013.8
20260506213816 58 346 1.7 2.6 0.00 0.00 0.00 63 1014.0
20260506213313 58 356 0.0 0.9 0.00 0.00 0.00 66 1013.9
20260506212810 57 1 0.0 0.0 0.00 0.00 0.00 65 1013.8
20260506212307 58 1 2.6 2.6 0.00 0.00 0.00 63 1013.9
20260506211801 60 352 3.5 4.3 0.00 0.00 0.00 63 1014.0
20260506211257 60 307 2.6 2.6 0.00 0.00 0.00 61 1014.2
20260506210754 58 358 0.0 0.0 0.00 0.00 0.00 64 1014.1
20260506210251 59 4 0.9 0.9 0.00 0.00 0.00 62 1014.1
20260506205748 58 339 0.9 0.9 0.00 0.00 0.00 64 1014.2
20260506205244 59 352 0.0 0.0 0.00 0.00 0.00 64 1014.2
20260506204741 58 327 0.9 1.7 0.00 0.00 0.00 68 1014.5
20260506204238 57 327 0.0 0.0 0.00 0.00 0.00 68 1014.3
20260506203736 57 316 0.0 0.0 0.00 0.00 0.00 68 1014.7
20260506203233 57 316 0.0 0.0 0.00 0.00 0.00 68 1014.7
20260506202731 57 316 0.0 0.9 0.00 0.00 0.00 66 1014.9
20260506202227 57 330 0.0 0.0 0.00 0.00 0.00 66 1014.9
20260506201724 57 331 0.9 0.9 0.00 0.00 0.00 66 1014.8
20260506201220 58 326 0.9 0.9 0.00 0.00 0.00 66 1015.1
20260506200717 59 326 0.0 0.0 0.00 0.00 0.00 63 1015.0
20260506200209 60 325 0.0 0.9 0.00 0.00 0.00 63 1015.2
20260506195705 59 326 0.0 0.0 0.00 0.00 0.00 61 1015.1
20260506195201 60 326 0.0 0.9 0.00 0.00 0.00 61 1015.1
20260506194659 59 2 0.9 0.9 0.00 0.00 0.00 64 1015.1
20260506194154 59 89 0.9 0.9 0.00 0.00 0.00 70 1015.0
20260506193652 57 9 0.0 0.0 0.00 0.00 0.00 70 1015.1
20260506193149 57 190 0.0 0.0 0.00 0.00 0.00 71 1015.4
20260506192646 56 317 0.0 0.9 0.00 0.00 0.00 67 1015.2
20260506192142 56 306 0.0 0.9 0.00 0.00 0.00 70 1015.3
20260506191639 56 306 0.0 0.0 0.00 0.00 0.00 69 1015.4
20260506191135 56 307 0.0 0.9 0.00 0.00 0.00 67 1015.2
20260506190633 57 307 0.0 0.9 0.00 0.00 0.00 71 1015.2
20260506190129 57 329 0.0 0.9 0.00 0.00 0.00 70 1015.1
20260506185627 56 333 0.0 0.9 0.00 0.00 0.00 66 1015.3
20260506185123 57 317 0.9 0.9 0.00 0.00 0.00 67 1015.4
20260506184620 58 288 1.7 2.6 0.00 0.00 0.00 67 1015.6
20260506184117 58 310 0.0 0.0 0.00 0.00 0.00 68 1015.4
20260506183614 57 309 0.0 0.0 0.00 0.00 0.00 67 1015.7
20260506183110 56 296 0.9 1.7 0.00 0.00 0.00 67 1016.0
20260506182608 56 296 0.0 0.0 0.00 0.00 0.00 69 1016.0
20260506182104 56 296 0.0 0.0 0.00 0.00 0.00 70 1016.2
20260506181603 56 295 0.0 0.9 0.00 0.00 0.00 69 1016.2
20260506181059 56 289 0.9 1.7 0.00 0.00 0.00 69 1016.0
20260506180556 56 308 0.0 0.9 0.00 0.00 0.00 69 1016.4
20260506180052 56 308 0.0 0.0 0.00 0.00 0.00 72 1016.4
20260506175549 55 315 0.0 0.9 0.00 0.00 0.00 67 1016.5
20260506175045 56 313 0.9 1.7 0.00 0.00 0.00 69 1016.6
20260506174544 55 324 0.9 0.9 0.00 0.00 0.00 68 1016.8
20260506174039 55 327 0.9 0.9 0.00 0.00 0.00 72 1016.5
20260506173538 54 327 1.7 2.6 0.00 0.00 0.00 73 1016.6
20260506173034 54 0 0.0 0.0 0.00 0.00 0.00 72 1016.9
20260506172531 53 359 0.0 0.9 0.00 0.00 0.00 72 1016.8
20260506172022 54 4 0.0 0.9 0.00 0.00 0.00 72 1016.6
20260506171519 55 4 0.0 0.9 0.00 0.00 0.00 77 1016.7
20260506171017 54 5 2.6 4.3 0.00 0.00 0.00 72 1016.6
20260506170514 53 352 0.0 0.0 0.00 0.00 0.00 73 1016.3
20260506170011 53 352 0.9 1.7 0.00 0.00 0.00 73 1016.5
20260506165510 53 56 1.7 2.6 0.00 0.00 0.00 73 1016.4
20260506165000 52 38 0.9 1.7 0.00 0.00 0.00 74 1016.5
20260506164457 53 339 0.9 1.7 0.00 0.00 0.00 73 1016.2
20260506163954 53 107 0.0 0.0 0.00 0.00 0.00 73 1016.1
20260506163449 53 344 0.0 0.0 0.00 0.00 0.00 76 1016.0
20260506162944 53 260 0.0 0.9 0.00 0.00 0.00 77 1016.1
20260506162442 52 202 0.0 0.9 0.00 0.00 0.00 78 1016.0
20260506161939 53 19 1.7 4.3 0.00 0.00 0.00 78 1016.0
20260506161437 53 351 0.0 0.0 0.00 0.00 0.00 78 1015.7
20260506160929 52 314 1.7 1.7 0.00 0.00 0.00 77 1015.9
20260506160426 51 15 0.9 1.7 0.00 0.00 0.00 77 1015.7
20260506155923 50 344 0.9 0.9 0.00 0.00 0.00 78 1015.7
20260506155420 50 357 0.9 1.7 0.00 0.00 0.00 79 1015.8
20260506153542 48 288 0.0 0.9 0.00 0.00 0.00 82 1015.8
20260506153040 49 5 1.7 2.6 0.00 0.00 0.00 83 1016.0
20260506152537 49 43 0.9 1.7 0.00 0.00 0.00 84 1016.0
20260506152035 49 326 0.0 0.0 0.00 0.00 0.00 84 1015.9
20260506151532 49 7 0.9 1.7 0.00 0.00 0.00 85 1015.9
20260506151024 49 334 0.0 0.0 0.00 0.00 0.00 87 1015.9
20260506150520 48 326 0.9 0.9 0.00 0.00 0.00 85 1015.7
20260506150017 48 5 0.0 0.0 0.00 0.00 0.00 85 1016.0
20260506145514 48 1 0.9 1.7 0.00 0.00 0.00 85 1016.0
20260506145011 48 0 0.0 0.9 0.00 0.00 0.00 85 1015.6
20260506144508 49 93 0.9 1.7 0.00 0.00 0.00 87 1015.7
20260506144005 48 94 1.7 1.7 0.00 0.00 0.00 87 1015.6
20260506143503 48 348 0.9 1.7 0.00 0.00 0.00 87 1015.3
20260506143001 48 351 1.7 1.7 0.00 0.00 0.00 86 1015.3
20260506142458 48 329 0.9 1.7 0.00 0.00 0.00 88 1015.3
20260506141956 47 329 0.9 0.9 0.00 0.00 0.00 88 1015.4
20260506141454 47 258 2.6 2.6 0.00 0.00 0.00 89 1015.4
20260506140952 48 357 0.9 1.7 0.00 0.00 0.00 90 1015.6
20260506140449 47 358 2.6 4.3 0.00 0.00 0.00 91 1015.6
20260506135945 48 333 1.7 2.6 0.00 0.00 0.00 92 1015.3
20260506135443 47 334 0.0 0.0 0.00 0.00 0.00 93 1015.4
20260506134938 47 336 0.9 0.9 0.00 0.00 0.00 93 1015.3
20260506134435 47 339 0.0 0.0 0.00 0.00 0.00 94 1015.4
20260506133932 46 339 0.0 0.0 0.00 0.00 0.00 93 1015.2
20260506133429 46 339 0.0 0.0 0.00 0.00 0.00 94 1015.1
20260506132926 46 342 0.0 0.9 0.00 0.00 0.00 94 1015.1
20260506132423 46 342 0.0 0.0 0.00 0.00 0.00 94 1015.3
20260506131920 46 23 0.0 0.0 0.00 0.00 0.00 94 1015.1
20260506131417 45 8 2.6 5.2 0.00 0.00 0.00 95 1015.0
20260506130914 45 0 0.0 0.9 0.00 0.00 0.00 96 1014.9
20260506130410 45 288 0.0 1.7 0.00 0.00 0.00 96 1015.3
20260506125908 45 322 0.9 0.9 0.00 0.00 0.00 96 1015.0
20260506125406 44 26 0.0 0.0 0.00 0.00 0.00 97 1015.2
20260506124904 45 271 0.0 0.9 0.00 0.00 0.00 97 1015.0
20260506124401 45 305 0.0 0.0 0.00 0.00 0.00 97 1015.0
20260506123859 45 305 0.0 0.0 0.00 0.00 0.00 97 1015.1
20260506123357 45 306 0.0 0.0 0.00 0.00 0.00 97 1015.0
20260506122854 45 293 0.0 0.0 0.00 0.00 0.00 97 1014.9
20260506122350 45 280 0.0 0.0 0.00 0.00 0.00 97 1014.9
20260506121849 44 280 0.0 0.0 0.00 0.00 0.00 97 1014.6
20260506121346 45 316 0.9 1.7 0.00 0.00 0.00 97 1014.7
20260506120843 44 305 0.0 0.0 0.00 0.00 0.00 97 1014.8
20260506120340 44 316 0.0 0.0 0.00 0.00 0.00 97 1014.6
20260506115837 44 316 0.0 0.0 0.00 0.00 0.00 97 1014.6
20260506115336 44 317 0.0 0.0 0.00 0.00 0.00 97 1014.8
20260506114834 44 317 0.9 0.9 0.00 0.00 0.00 97 1014.6
20260506114331 45 317 0.0 0.0 0.00 0.00 0.00 97 1014.5
20260506113830 44 317 0.0 0.0 0.00 0.00 0.00 96 1014.5
20260506113327 44 316 0.9 1.7 0.00 0.00 0.00 96 1014.4
20260506112823 44 317 0.9 0.9 0.00 0.00 0.00 96 1014.3
20260506112320 44 299 0.0 0.0 0.00 0.00 0.00 96 1014.0
20260506111818 44 299 0.0 0.9 0.00 0.00 0.00 96 1014.0
20260506111316 44 299 0.0 0.0 0.00 0.00 0.00 96 1013.9
20260506110813 44 300 0.0 0.0 0.00 0.00 0.00 96 1014.0
20260506110310 45 304 0.0 0.0 0.00 0.00 0.00 96 1013.8
20260506105806 44 315 0.0 0.9 0.00 0.00 0.00 96 1013.6
20260506105305 45 306 0.0 0.0 0.00 0.00 0.00 95 1013.5
20260506104801 44 306 0.0 0.0 0.00 0.00 0.00 95 1013.2
20260506104258 44 314 0.0 0.0 0.00 0.00 0.00 95 1012.9
20260506103756 44 311 0.0 0.0 0.00 0.00 0.00 95 1013.1
20260506103253 45 311 0.0 0.0 0.00 0.00 0.00 94 1012.6
20260506102750 44 311 1.7 1.7 0.00 0.00 0.00 94 1012.7
20260506102248 44 2 1.7 1.7 0.00 0.00 0.00 94 1012.5
20260506101745 44 353 0.0 0.0 0.00 0.00 0.00 95 1012.4
20260506101241 44 349 0.9 0.9 0.00 0.00 0.00 95 1012.3
20260506100740 44 358 0.9 1.7 0.00 0.00 0.00 95 1012.2
20260506100237 44 1 0.9 1.7 0.00 0.00 0.00 96 1012.1
20260506095736 44 2 0.9 0.9 0.00 0.00 0.00 97 1011.9
20260506095232 44 6 0.9 1.7 0.00 0.00 0.00 97 1011.5
20260506094729 44 19 0.0 0.0 0.00 0.00 0.00 97 1011.6
20260506094227 44 98 0.9 1.7 0.00 0.00 0.00 97 1011.4
20260506093726 44 355 0.9 0.9 0.00 0.00 0.00 97 1011.8
20260506093222 44 350 0.9 1.7 0.00 0.00 0.00 97 1011.7
20260506092720 44 321 0.0 0.9 0.00 0.00 0.00 98 1011.9
20260506092218 44 328 0.9 1.7 0.00 0.00 0.00 98 1011.8
20260506091715 44 8 0.0 0.0 0.00 0.00 0.00 98 1012.0
20260506091212 44 9 0.0 0.0 0.00 0.00 0.00 98 1012.1
20260506090710 44 11 0.9 0.9 0.00 0.00 0.00 98 1012.1
20260506090206 44 11 0.0 0.9 0.00 0.00 0.00 98 1011.9
20260506085704 44 11 0.0 0.0 0.00 0.00 0.00 98 1011.7
20260506085159 44 11 0.0 0.0 0.00 0.00 0.00 98 1011.9
20260506084656 44 11 0.0 0.0 0.00 0.00 0.00 98 1012.0
20260506084153 44 11 0.0 0.0 0.00 0.00 0.00 98 1011.7
20260506083650 44 11 0.9 0.9 0.00 0.00 0.00 98 1011.7
20260506083148 44 357 1.7 1.7 0.00 0.00 0.00 98 1011.3
20260506082644 44 12 0.0 0.0 0.00 0.00 0.00 98 1011.2
20260506082139 44 359 0.0 0.9 0.00 0.00 0.00 98 1011.5
20260506081638 44 3 0.0 0.9 0.00 0.00 0.00 98 1011.3
20260506081135 44 9 0.0 0.9 0.00 0.00 0.00 98 1011.1
20260506080632 44 9 1.7 2.6 0.00 0.00 0.00 98 1010.8
20260506080129 44 13 0.9 1.7 0.00 0.00 0.00 98 1010.6
20260506073113 44 338 0.0 0.0 0.00 0.00 0.00 98 1011.1
20260506072609 44 1 0.0 0.9 0.00 0.00 0.00 98 1010.6
20260506072108 44 274 0.9 1.7 0.00 0.00 0.00 98 1010.6
20260506071605 44 314 0.9 0.9 0.00 0.00 0.00 98 1010.7
20260506071102 44 313 0.9 0.9 0.00 0.00 0.00 98 1011.1
20260506070559 44 313 1.7 2.6 0.00 0.00 0.00 98 1011.7
20260506062034 45 300 0.0 0.0 0.00 0.00 0.00 98 1011.7
20260506061529 45 300 0.9 0.9 0.00 0.00 0.00 98 1011.7
20260506061027 45 299 0.9 0.9 0.00 0.00 0.00 98 1011.8
20260506060526 45 299 0.9 1.7 0.00 0.00 0.00 98 1011.6